Location: Bratislava
(0.0000°N, 17.1167°E)
Time: 04:32:32
(UTC+01:00)

ARIANE DEB (SYLDA) - Pass Details

Date: 24 January 2021
Orbit: 594 x 35691 km, 6.5° (Epoch: 06 March)

Event Time Altitude Azimuth Distance (km) Brightness Sun altitude
Rises 19:16:55 0° 261° (W) 5,132 8.4 -17.3°
Reaches altitude 10° 19:21:32 10° 253° (WSW) 2,869 6.7 -18.3°
Maximum altitude 19:26:21 37° 183° (S) 976 3.2 -19.5°
Enters shadow 19:27:53 25° 132° (SE) 1,217 3.3 -19.8°
